STARLINK-36995

Last updated on Sun Apr 12 2026 00:02:06 GMT+0000 (Coordinated Universal Time)

1 68143U 26049B 26101.49210132 .00331299 00000+0 21268-2 0 9992 2 68143 97.2845 122.3814 0000790 274.4166 85.7009 15.75299788 4583
UTC large
Height (km)
Speed (km/s)
/
Latitude / Longitude
Inclination (degrees)
Orbital Period (minutes)
Azimuth
Elevation
Range (km)
Doppler Factor

Next 0 passes for location: London (51.5072 / 0.1276)

Sorry there are no passes over London.
STARLINK-36995